Regional Weather Roundup
Issued by NWS

Home | Current Version | Previous Version | Graphics & Text | Print | Product List | Glossary On
Versions: 1 2 3 4 5 6 7 8 9 10 11 12 13 14 15 16 17 18 19 20 21 22 23 24 25 26 27 28 29 30 31 32 33 34 35 36 37 38 39 40 41 42 43 44 45 46 47 48 49 50
403
ASUS43 KLOT 221612
RWRIL

ILLINOIS REGIONAL WEATHER ROUNDUP
NATIONAL WEATHER SERVICE CHICAGO/ROMEOVILLE IL
1000 AM CST SUN JAN 22 2017

NOTE: "FAIR" INDICATES FEW OR NO CLOUDS BELOW 12,000 FEET WITH NO
SIGNIFICANT WEATHER AND/OR OBSTRUCTIONS TO VISIBILITY.

* THESE STATIONS ARE NOT UNDER NWS QUALITY CONTROL. THEY ALSO MAY NOT
  REPORT WEATHER SUCH AS PRECIPITATION OR FOG.

ILZ001-002-007-009-015-016-024-221700-
NORTHWEST ILLINOIS

CITY           SKY/WX    TMP DP  RH WIND       PRES   REMARKS
MOLINE         CLOUDY    36  34  92 W3        29.67R FOG
STERLING*      CLOUDY    32  32 100 N3        29.68S FOG
SAVANNA*       FOG       32  32 100 CALM      29.68R VSB 3/4
$$

ILZ003-004-008-010-011-017-018-221700-
NORTH CENTRAL ILLINOIS

CITY           SKY/WX    TMP DP  RH WIND       PRES   REMARKS
ROCKFORD       CLOUDY    37  35  92 NE5       29.68R FOG     WCI  33
FREEPORT*      FOG       32  32 100 E3        29.69R VSB<1/4
ROCHELLE*      CLOUDY    32  32 100 N7        29.67S FOG     WCI  26
DE KALB*       FOG       35  35 100 NW5       29.65R VSB<1/4 WCI  30
$$

ILZ005-006-012>014-019>023-221700-
NORTHEAST ILLINOIS

CITY           SKY/WX    TMP DP  RH WIND       PRES   REMARKS
CHICAGO-OHARE  CLOUDY    42  39  89 N6        29.64R
CHICAGO-MIDWAY CLOUDY    42  40  92 NE6       29.65R FOG
AURORA         CLOUDY    35  35 100 CALM      29.65R FOG
LANSING*       FOG       40  40 100 NE6       29.65S VSB 1/2
JOLIET*        CLOUDY    43  43 100 NE5       29.64S FOG
WAUKEGAN       MOSUNNY   45  40  82 VRB3      29.65R
DUPAGE AIRPORT CLOUDY    36  34  92 N3        29.64S FOG
KANKAKEE*      FOG       40  39  99 NE7       29.65R VSB 3/4
WHEELING       MOSUNNY   44  38  79 E3        29.66R
MORRIS*        FOG       38  38  98 CALM      29.64R VSB 1/4
ROMEOVILLE*    CLOUDY    41  41 100 NE6       29.64S FOG
NORTHERLY ISL    N/A     38  37  97 N3          N/A
$$

LMZ740>746-221700-
SOUTHERN LAKE MICHIGAN

STATION/POSITION SKY/WX   TEMP    WIND        PRES    VSBY  WAVE
                          AIR SEA DIR/SP/G                  HT/PER
                          (F)     (DEG/KT/KT) (MB)    (MI)  (FT/S)
HARRISON CRIB              40      10/  5/  5   N/A
BURNHAM HARBOR             38      40/  3/  5   N/A
CALUMET HARBOR             38      10/  4/  5 1003.9R
BURNS HARBOR               36      70/  8/  9 1005.1R
MICHIGAN CITY              37      30/  9/ 10   N/A
$$

ILZ025>027-034>036-040-047-049-050-058-095>099-221700-
WEST-CENTRAL ILLINOIS

CITY           SKY/WX    TMP DP  RH WIND       PRES   REMARKS
QUINCY         CLOUDY    43  40  89 N14       29.63R FOG
GALESBURG*     CLOUDY    36  36 100 N7        29.66R FOG     WCI  31
MACOMB*        CLOUDY    40  40 100 N8        29.68R FOG
JACKSONVILLE*  CLOUDY    42  42  99 N15       29.59F FOG
PITTSFIELD*    PTSUNNY   45  43  92 N8        29.60S FOG
$$

ILZ028>032-037-038-041>044-048-051>054-059>061-221700-
CENTRAL ILLINOIS

CITY           SKY/WX    TMP DP  RH WIND       PRES   REMARKS
PONTIAC        CLOUDY    40  40 100 NE9       29.65R FOG
BLOOMINGTON    FOG       40  40 100 N15       29.62F VSB 1/2
DECATUR        CLOUDY    46  44  93 N7        29.58S
PEORIA         CLOUDY    40  40 100 NE6       29.65R FOG
LACON*         FOG       35  35 100 N3        29.64F VSB 1/4
LINCOLN*       PTSUNNY   44  44 100 N9        29.61S FOG
SPRINGFIELD    CLOUDY    44  42  93 N10       29.59S FOG
TAYLORVILLE    CLOUDY    42  41  97 N13       29.57S FOG
$$

ILZ033-039-045-046-055>057-062-063-221700-
EAST-CENTRAL ILLINOIS

CITY           SKY/WX    TMP DP  RH WIND       PRES   REMARKS
CHAMPAIGN      CLOUDY    49  44  83 NE7       29.58S
RANTOUL*       CLOUDY    45  44  97 N10       29.60S FOG
MATTOON        CLOUDY    50  49  96 NE8       29.54F FOG
PARIS*         MOSUNNY   49  49  99 NE6       29.58R
$$

ILZ079-100>102-221700-
SOUTHWEST ILLINOIS

CITY           SKY/WX    TMP DP  RH WIND       PRES   REMARKS
ALTON          CLOUDY    46  43  87 N12G21    29.54S
BELLEVILLE     CLOUDY    49  49  99 N8        29.50R
CAHOKIA*       PTSUNNY   51  44  77 N13       29.52R
SPARTA*        CLOUDY    52  50  94 N6        29.50R
$$

ILZ064>066-069>071-074>076-080>082-084>086-088>090-092>094-221700-
SOUTH-CENTRAL ILLINOIS

CITY           SKY/WX    TMP DP  RH WIND       PRES   REMARKS
CARBONDALE     CLOUDY    53  51  93 E3        29.47R
CAIRO*         CLOUDY    55  51  87 E6        29.45S
EFFINGHAM*     CLOUDY    53  52  95 N6        29.54S
MARION         CLOUDY    55  55 100 E9        29.48R
MT. VERNON     CLOUDY    55  51  86 NE7       29.49S
CENTRALIA*     CLOUDY    54  51  89 NE6       29.49R
SALEM*         PTSUNNY   55  50  85 NE7       29.50S
METROPOLIS*    CLOUDY    56  52  85 CALM      29.47R
$$

ILZ067-068-072-073-078-083-087-091-221700-
SOUTHEAST ILLINOIS

CITY           SKY/WX    TMP DP  RH WIND       PRES   REMARKS
LAWRENCEVILLE  CLOUDY    54  50  86 NE10      29.52F
FLORA*         CLOUDY    55  51  86 NE9       29.51S
FAIRFIELD*     CLOUDY    54  51  89 NE6       29.48S
HARRISBURG*    CLOUDY    54  51  90 NE5       29.48S
ROBINSON*      CLOUDY    52  50  92 NE6       29.55S
CARMI*         CLOUDY    55  51  87 NE9       29.48S
$$

ABBREVIATIONS USED IN REMARKS
   TC - TEMPERATURE IN CELSIUS
  WCI - WIND CHILL INDEX
   HX - HEAT INDEX
  VSB - VISIBILITY
$$





USA.gov is the U.S. government's official web portal to all federal, state and local government web resources and services.